K9JM Weather Reports


time (UTC)temp
F
wind
direction
speed
knots
gust
knots
rain 1hr
in
rain 24hr
in
rain mn
in
humidity
%
barometer
mb
20260906234535 73 135 1.7 5.2 0.00 0.00 0.00 37 1013.8
20260906233015 74 135 1.7 8.7 0.00 0.00 0.00 37 1014.0
20260906231515 74 113 1.7 10.4 0.00 0.00 0.00 37 1014.1
20260906230035 75 90 0.9 6.1 0.00 0.00 0.00 40 1014.2
20260906224515 75 135 1.7 6.1 0.00 0.00 0.00 41 1014.5
20260906223015 75 135 0.9 4.3 0.00 0.00 0.00 40 1014.7
20260906221536 75 225 0.9 2.6 0.00 0.00 0.00 40 1014.8
20260906220016 75 225 0.9 6.1 0.00 0.00 0.00 40 1015.0
20260906214515 75 135 1.7 8.7 0.00 0.00 0.00 39 1014.9
20260906213015 76 270 0.9 4.3 0.00 0.00 0.00 39 1015.1
20260906211515 76 135 1.7 5.2 0.00 0.00 0.00 39 1015.0
20260906210015 75 270 0.9 6.1 0.00 0.00 0.00 40 1014.8
20260906204535 76 135 1.7 8.7 0.00 0.00 0.00 39 1015.0
20260906203035 75 225 0.9 4.3 0.00 0.00 0.00 40 1014.8
20260906201515 75 180 1.7 5.2 0.00 0.00 0.00 39 1014.9
20260906200037 75 113 1.7 5.2 0.00 0.00 0.00 40 1015.0
20260906194517 76 225 0.9 4.3 0.00 0.00 0.00 39 1015.2
20260906193037 76 203 0.9 4.3 0.00 0.00 0.00 39 1015.3
20260906191517 75 180 0.9 4.3 0.00 0.00 0.00 39 1015.4
20260906190017 75 113 0.9 6.1 0.00 0.00 0.00 38 1015.6
20260906184557 74 248 0.9 4.3 0.00 0.00 0.00 41 1015.6
20260906183018 74 248 0.9 5.2 0.00 0.00 0.00 38 1015.5
20260906181517 75 0.0 3.5 0.00 0.00 0.00 37 1015.7
20260906180037 74 113 1.7 4.3 0.00 0.00 0.00 38 1015.6
20260906174537 73 113 1.7 5.2 0.00 0.00 0.00 40 1015.7
20260906173017 73 113 0.9 7.8 0.00 0.00 0.00 39 1015.6
20260906171517 72 113 0.9 4.3 0.00 0.00 0.00 43 1015.6
20260906170017 71 113 0.9 4.3 0.00 0.00 0.00 46 1015.6
20260906164557 70 113 1.7 5.2 0.00 0.00 0.00 51 1015.6
20260906163037 69 113 0.9 3.5 0.00 0.00 0.00 54 1015.5
20260906161517 68 113 0.9 2.6 0.00 0.00 0.00 55 1015.5
20260906160015 67 0.0 2.6 0.00 0.00 0.00 59 1015.4
20260906154517 66 68 0.9 3.5 0.00 0.00 0.00 59 1015.4
20260906153017 65 68 0.9 3.5 0.00 0.00 0.00 62 1015.4
20260906151517 64 68 0.9 4.3 0.00 0.00 0.00 63 1015.1
20260906150017 63 68 0.9 2.6 0.00 0.00 0.00 65 1015.1
20260906144517 62 68 0.9 2.6 0.00 0.00 0.00 66 1015.1
20260906143017 60 0.0 2.6 0.00 0.00 0.00 70 1014.8
20260906141517 58 0.0 0.0 0.00 0.00 0.00 72 1014.4
20260906140017 58 0.0 0.0 0.00 0.00 0.00 71 1014.5
20260906134517 58 0.0 0.0 0.00 0.00 0.00 70 1014.4
20260906133017 58 0.0 0.0 0.00 0.00 0.00 71 1014.4
20260906131517 58 0.0 0.0 0.00 0.00 0.00 71 1014.2
20260906130017 58 0.0 0.0 0.00 0.00 0.00 71 1014.3
20260906124517 58 0.0 0.0 0.00 0.00 0.00 70 1014.2
20260906123037 58 0.0 0.0 0.00 0.00 0.00 70 1014.3
20260906121517 58 0.0 0.0 0.00 0.00 0.00 70 1014.5
20260906120017 58 0.0 0.0 0.00 0.00 0.00 70 1014.5
20260906114517 58 0.0 0.0 0.00 0.00 0.00 69 1014.6
20260906113017 58 0.0 0.0 0.00 0.00 0.00 70 1014.6
20260906111516 58 0.0 0.0 0.00 0.00 0.00 70 1014.5
20260906110016 58 0.0 0.0 0.00 0.00 0.00 70 1014.4
20260906104516 58 0.0 0.9 0.00 0.00 0.00 70 1014.4
20260906103017 58 0.0 0.9 0.00 0.00 0.00 70 1014.3
20260906101517 58 0.0 0.9 0.00 0.00 0.00 70 1014.3
20260906100016 58 0.0 0.0 0.00 0.00 0.00 70 1014.4
20260906094517 58 0.0 0.0 0.00 0.00 0.00 70 1014.5
20260906093016 58 0.0 0.0 0.00 0.00 0.00 70 1014.4
20260906091517 58 0.0 0.0 0.00 0.00 0.00 70 1014.4
20260906090016 58 0.0 0.0 0.00 0.00 0.00 70 1014.6
20260906084557 58 0.0 0.0 0.00 0.00 0.00 70 1014.7
20260906083017 58 0.0 0.0 0.00 0.00 0.00 70 1014.9
20260906081517 58 0.0 0.0 0.00 0.00 0.00 69 1014.9
20260906080016 59 0.0 0.0 0.00 0.00 0.00 70 1015.0
20260906074516 59 0.0 0.0 0.00 0.00 0.00 70 1015.2
20260906073017 59 0.0 0.9 0.00 0.00 0.00 69 1015.3
20260906071516 59 0.0 0.0 0.00 0.00 0.00 69 1015.4
20260906070017 60 0.0 0.0 0.00 0.00 0.00 67 1015.5
20260906064535 60 0.0 0.0 0.00 0.00 0.00 68 1015.6
20260906063035 60 0.0 0.0 0.00 0.00 0.00 67 1015.6
20260906061516 61 0.0 0.0 0.00 0.00 0.00 67 1015.6
20260906060015 61 0.0 0.0 0.00 0.00 0.00 66 1015.6
20260906054516 61 0.0 0.0 0.00 0.00 0.00 65 1015.6
20260906053016 62 0.0 0.0 0.00 0.00 0.00 64 1015.6
20260906051515 62 0.0 0.9 0.00 0.00 0.00 63 1015.7
20260906050016 63 0.0 0.9 0.00 0.00 0.00 60 1015.5
20260906044516 64 0.0 0.9 0.00 0.00 0.00 59 1015.5
20260906043015 64 0.0 0.0 0.00 0.00 0.00 58 1015.3
20260906041516 65 0.0 0.0 0.00 0.00 0.00 55 1015.3
20260906040055 66 0.0 0.0 0.00 0.00 0.00 53 1015.3
20260906034535 66 0.0 0.0 0.00 0.00 0.00 51 1015.2
20260906033035 66 0.0 0.0 0.00 0.00 0.00 51 1014.6
20260906031515 67 0.0 0.0 0.00 0.00 0.00 50 1014.7
20260906030036 67 0.0 0.0 0.00 0.00 0.00 49 1014.4
20260906024515 67 0.0 0.0 0.00 0.00 0.00 49 1014.4
20260906023015 68 0.0 0.0 0.00 0.00 0.00 48 1014.3
20260906021535 69 0.0 0.0 0.00 0.00 0.00 48 1014.4
20260906020016 69 0.0 0.0 0.00 0.00 0.00 48 1014.4
20260906014516 69 0.0 1.7 0.00 0.00 0.00 47 1014.5
20260906013016 70 0.0 0.9 0.00 0.00 0.00 46 1014.4
20260906011515 70 0.0 0.0 0.00 0.00 0.00 44 1014.6
20260906010015 71 113 0.9 3.5 0.00 0.00 0.00 45 1014.6
20260906004535 71 113 0.9 4.3 0.00 0.00 0.00 44 1014.9
20260906003015 71 0.0 2.6 0.00 0.00 0.00 44 1014.9
20260906001515 71 113 0.9 4.3 0.00 0.00 0.00 43 1015.0
20260906000015 72 135 0.9 5.2 0.00 0.00 0.00 43 1015.1